This demonstration page uses our WeatherBlox Daily Observations layout. Learn more.

Left ArrowRight Arrow

44.8408, -93.29828

Hourly Observations for October 4, 2021

Temp ( °F °C ) Dew Point ( °F °C ) Humidity (%) Winds ( mph kmh ) Pressure ( in mb ) Visibility ( mi km ) Precip ( " mm )
12:53 am 00:53 Mostly Clear 56 13.3 52 11.1 87 87 N N/A 30.00 1016 9 14 N/A
1:53 am 01:53 Mostly Clear 55 12.8 52 11.1 90 90 N N/A 30.01 1016 9 14 N/A
2:53 am 02:53 Mostly Clear 54 12.2 52 11.1 93 93 NW 3 6 30.02 1017 9 14 N/A
3:53 am 03:53 Clear 52 11.1 51 10.6 97 97 NW 5 7 30.03 1017 10 16 N/A
4:53 am 04:53 Mostly Clear 53 11.7 51 10.6 93 93 N N/A 30.04 1017 7 11 N/A
5:14 am 05:14 Mostly Cloudy with Mist and Fog 53 11.7 51 10.6 93 93 N N/A 30.04 1017 6 10 N/A
5:24 am 05:24 Cloudy with Mist and Fog 54 12.2 51 10.6 90 90 N 5 7 30.04 1017 6 10 N/A
5:36 am 05:36 Cloudy with Fog 53 11.7 52 11.1 96 96 NNW 3 6 30.05 1018 0 0 N/A
5:53 am 05:53 Mostly Cloudy with Fog 53 11.7 53 11.7 100 100 N N/A 30.05 1018 0 0 N/A
6:53 am 06:53 Mostly Cloudy with Fog 54 12.2 54 12.2 100 100 N N/A 30.07 1018 0 0 0.00 0.00
7:53 am 07:53 Mostly Cloudy with Fog 54 12.2 54 12.2 100 100 VRB 3 6 30.09 1019 0 0 N/A
8:12 am 08:12 Cloudy with Mist and Fog 55 12.8 55 12.8 100 100 ENE 6 9 30.09 1019 1 2 N/A
8:48 am 08:48 Cloudy with Mist and Fog 55 13 54 12 94 94 ENE 3 6 30.11 1020 2 3 N/A
8:53 am 08:53 Cloudy with Mist and Fog 55 12.8 55 12.8 100 100 ENE 3 6 30.11 1020 2 3 N/A
9:14 am 09:14 Cloudy with Mist and Fog 55 12.8 54 12.2 96 96 E 6 9 30.11 1020 3 5 N/A
9:43 am 09:43 Cloudy 56 13.3 54 12.2 93 93 E 6 9 30.12 1020 7 11 N/A
9:53 am 09:53 Cloudy 57 13.9 55 12.8 93 93 ENE 5 7 30.12 1020 9 14 N/A
10:48 am 10:48 Partly Cloudy 61 16 55 13 83 83 E 3 6 30.12 1020 10 16 N/A
10:53 am 10:53 Partly Cloudy 61 16.1 55 12.8 81 81 N N/A 30.13 1020 10 16 N/A
11:53 am 11:53 Partly Cloudy 64 17.8 56 13.3 75 75 VRB 5 7 30.13 1020 10 16 N/A
12:53 pm 12:53 Mostly Sunny 67 19.4 55 12.8 66 66 NE 3 6 30.12 1020 10 16 N/A
1:53 pm 13:53 Partly Cloudy 71 21.7 54 12.2 55 55 NNE 8 13 30.11 1020 10 16 N/A
2:53 pm 14:53 Partly Cloudy 72 22.2 53 11.7 52 52 N N/A 30.11 1020 10 16 N/A
3:53 pm 15:53 Mostly Sunny 72 22.2 53 11.7 52 52 VRB 3 6 30.11 1020 10 16 N/A
4:53 pm 16:53 Mostly Sunny 72 22.2 51 10.6 48 48 NNE 7 11 30.11 1020 10 16 N/A
5:53 pm 17:53 Mostly Sunny 71 21.7 52 11.1 51 51 NE 6 9 30.12 1020 10 16 N/A
6:53 pm 18:53 Mostly Clear 69 20.6 53 11.7 57 57 ENE 5 7 30.13 1020 10 16 N/A
7:53 pm 19:53 Clear 67 19.4 52 11.1 59 59 ENE 6 9 30.13 1020 10 16 N/A
8:53 pm 20:53 Clear 65 18.3 53 11.7 66 66 ENE 3 6 30.15 1021 10 16 N/A
9:53 pm 21:53 Clear 62 16.7 53 11.7 73 73 N N/A 30.16 1021 10 16 N/A
10:53 pm 22:53 Clear 61 16.1 54 12.2 78 78 E 3 6 30.17 1022 10 16 N/A
11:53 pm 23:53 Clear 61 16.1 55 12.8 81 81 N N/A 30.18 1022 10 16 N/A

Powered by AerisWeather